(318565) = 1994 AV16 = 2005 GX118

Discovered at Mount Lemmon on 2005-04-11 by Mt. Lemmon Survey.

Orbit

Orbit type: Main Belt

Note: WebGL enabled browser required.

epoch2023-02-25.0
epoch JD2460000.5
perihelion date2022-01-09.70536
perihelion JD2459589.20536
argument of perihelion (°)12.86160
ascending node (°)77.32183
inclination (°)2.84184
eccentricity0.1669733
perihelion distance (AU)1.9299614
Tisserand w.r.t. Jupiter3.6
ΔV w.r.t. Earth (km/sec)8.7
semimajor axis (AU)2.3168061
mean anomaly (°)114.95354
mean daily motion (°/day)0.27949200
aphelion distance (AU)2.704
period (years)3.53
P-vector [x]-0.00293422
P-vector [y]0.91303231
P-vector [z]0.40787669
Q-vector [x]-0.99882516
Q-vector [y]-0.02240521
Q-vector [z]0.04296865
absolute magnitude17.88
phase slope0.15
uncertainty0
referenceMPO 745323
observations used142
oppositions11
arc length (days)10742
first opposition used1994
last opposition used2023
residual rms (arc-secs)0.82
perturbers coarse indicatorM-v
perturbers precise indicator003Ek
first observation date used1994-01-08.0
last observation date used2023-06-07.0
computer nameMPCLINUX
JD of orbit computation2456494.381798
perihelion JD uncertainty (days)9.1859E-05
argument of perihelion uncertainty (°)1.2203E-04
ascending node uncertainty (°)1.1834E-04
inclination uncertainty (°)5.8844E-06
eccentricity uncertainty 9.3352E-08
perihelion distance uncertainty (AU)2.1776E-07
Minimum Orbit Intersection Distances (in AU)
for orbit epoch: 2460000.5, reference: E2023-L34
Mercury1.62157
Venus1.21031
Earth0.94573
Mars0.33038
Jupiter2.48438
Saturn7.13202
Uranus16.1577
Neptune27.5546

Observations

149 total observations over interval: 1994 01 08.44750 – 2023 06 07.357145
These data are available for download (format description).

Date (UT) J2000 RA J2000 Dec Magn Location Ref
1994 01 08.44750 08 56 56.88 +21 04 18.0 20.0 V 691 – Steward Observatory, Kitt Peak-Spacewatch MPC 24479
1994 01 08.51532 08 56 53.67 +21 04 39.4   691 – Steward Observatory, Kitt Peak-Spacewatch MPC 24479
1994 01 11.37201 08 54 38.79 +21 20 49.5 19.3 V 691 – Steward Observatory, Kitt Peak-Spacewatch MPC 24479
1994 01 11.40813 08 54 36.86 +21 21 01.9   691 – Steward Observatory, Kitt Peak-Spacewatch MPC 24479
1994 01 11.44444 08 54 34.96 +21 21 13.7   691 – Steward Observatory, Kitt Peak-Spacewatch MPC 24479
2000 12 31.41398 08 05 13.03 +23 20 58.2 20.2 V 691 – Steward Observatory, Kitt Peak-Spacewatch MPS 137072
2000 12 31.43706 08 05 11.77 +23 21 05.0 20.1 V 691 – Steward Observatory, Kitt Peak-Spacewatch MPS 137072
2000 12 31.46018 08 05 10.50 +23 21 11.6 20.5 V 691 – Steward Observatory, Kitt Peak-Spacewatch MPS 137072
2001 01 19.26137 07 46 12.03 +24 51 37.3 18.8   704 – Lincoln Laboratory ETS, New Mexico MPS 137072
2001 01 19.29185 07 46 09.98 +24 51 45.1 19.3   704 – Lincoln Laboratory ETS, New Mexico MPS 137072
2001 01 19.30760 07 46 08.93 +24 51 48.6 19.1   704 – Lincoln Laboratory ETS, New Mexico MPS 137072
2001 01 19.32295 07 46 07.96 +24 51 52.6 19.6   704 – Lincoln Laboratory ETS, New Mexico MPS 137072
2005 03 09.41075 13 38 34.26 -05 43 39.6 21.4 R G96 – Mt. Lemmon Survey MPS 137072
2005 03 09.41837 13 38 33.97 -05 43 38.6 20.2 R G96 – Mt. Lemmon Survey MPS 137072
2005 03 09.42591 13 38 33.70 -05 43 36.0 20.3 R G96 – Mt. Lemmon Survey MPS 137072
2005 03 09.43353 13 38 33.45 -05 43 34.1 20.8 R G96 – Mt. Lemmon Survey MPS 137072
2005 04 11.27764 13 10 44.94 -02 59 32.4 20.3 R G96 – Mt. Lemmon Survey MPS 131880
2005 04 11.28290 13 10 44.61 -02 59 30.8 20.1 R G96 – Mt. Lemmon Survey MPS 131880
2005 04 11.28816 13 10 44.31 -02 59 29.3 20.5 R G96 – Mt. Lemmon Survey MPS 131880
2005 04 11.29347 13 10 43.97 -02 59 27.7 20.3 R G96 – Mt. Lemmon Survey MPS 131880
2005 04 12.19063 13 09 51.26 -02 54 58.2 20.9 V 691 – Steward Observatory, Kitt Peak-Spacewatch MPS 131880
2005 04 12.20819 13 09 50.19 -02 54 53.8 21.2 V 691 – Steward Observatory, Kitt Peak-Spacewatch MPS 131880
2005 04 12.22563 13 09 49.16 -02 54 48.2 21.2 V 691 – Steward Observatory, Kitt Peak-Spacewatch MPS 131880
2005 05 11.24329 12 48 09.17 -01 26 55.8 19.7 R G96 – Mt. Lemmon Survey MPS 137072
2005 05 11.25068 12 48 09.08 -01 26 56.6 19.2 R G96 – Mt. Lemmon Survey MPS 137072
2005 05 11.25811 12 48 08.81 -01 26 55.8 20.7 R G96 – Mt. Lemmon Survey MPS 137072
2005 05 11.26558 12 48 08.57 -01 26 55.7 19.7 R G96 – Mt. Lemmon Survey MPS 137072
2007 12 03.42580 07 23 32.06 +23 14 49.2 20.3 V 691 – Steward Observatory, Kitt Peak-Spacewatch MPS 229820
2007 12 03.44344 07 23 31.76 +23 14 52.3 20.1 V 691 – Steward Observatory, Kitt Peak-Spacewatch MPS 229820
2007 12 03.46108 07 23 31.48 +23 14 55.5 20.2 V 691 – Steward Observatory, Kitt Peak-Spacewatch MPS 229820
2007 12 06.34497 07 22 41.56 +23 24 03.2 19.1 C 704 – Lincoln Laboratory ETS, New Mexico MPS 287973
2007 12 06.37064 07 22 41.20 +23 24 09.3 19.4 C 704 – Lincoln Laboratory ETS, New Mexico MPS 287973
2007 12 06.38344 07 22 40.72 +23 24 09.9 20.4 C 704 – Lincoln Laboratory ETS, New Mexico MPS 287973
2007 12 06.39624 07 22 40.50 +23 24 12.6 20.8 C 704 – Lincoln Laboratory ETS, New Mexico MPS 287973
2007 12 10.32161 07 20 59.07 +23 37 53.3 19.5   704 – Lincoln Laboratory ETS, New Mexico MPS 230929
2007 12 10.33453 07 20 58.69 +23 37 57.5 20.2   704 – Lincoln Laboratory ETS, New Mexico MPS 230929
2007 12 10.36043 07 20 57.78 +23 38 02.1 19.9   704 – Lincoln Laboratory ETS, New Mexico MPS 230929
2007 12 10.37333 07 20 57.43 +23 38 05.1 20.4   704 – Lincoln Laboratory ETS, New Mexico MPS 230929
2007 12 15.41334 07 17 53.66 +23 57 15.8 20.1 V 691 – Steward Observatory, Kitt Peak-Spacewatch MPS 231347
2007 12 15.43097 07 17 52.87 +23 57 20.0 20.0 V 691 – Steward Observatory, Kitt Peak-Spacewatch MPS 231347
2007 12 15.44861 07 17 52.05 +23 57 23.9 19.9 V 691 – Steward Observatory, Kitt Peak-Spacewatch MPS 231347
2007 12 30.18514 07 04 32.44 +24 57 22.3 19.8 V 691 – Steward Observatory, Kitt Peak-Spacewatch MPS 232621
2007 12 30.20278 07 04 31.28 +24 57 26.7 19.5 V 691 – Steward Observatory, Kitt Peak-Spacewatch MPS 232621
2007 12 30.22044 07 04 30.12 +24 57 31.0 19.8 V 691 – Steward Observatory, Kitt Peak-Spacewatch MPS 232621
2012 02 25.44525 13 15 43.48 -03 18 21.5 21.1 V 691 – Steward Observatory, Kitt Peak-Spacewatch MPS 414173
2012 02 25.46320 13 15 43.08 -03 18 18.3 20.8 V 691 – Steward Observatory, Kitt Peak-Spacewatch MPS 414173
2012 02 25.48115 13 15 42.71 -03 18 14.8 21.4 V 691 – Steward Observatory, Kitt Peak-Spacewatch MPS 414173
2012 02 29.45490 13 14 12.85 -03 04 34.0 21.3 V 691 – Steward Observatory, Kitt Peak-Spacewatch MPS 414173
2012 02 29.47010 13 14 12.38 -03 04 30.3 21.3 V 691 – Steward Observatory, Kitt Peak-Spacewatch MPS 414173
2012 02 29.48528 13 14 11.91 -03 04 27.3 21.2 V 691 – Steward Observatory, Kitt Peak-Spacewatch MPS 414173
2012 03 16.27839 13 03 51.04 -01 49 15.4 21.0 V 691 – Steward Observatory, Kitt Peak-Spacewatch MPS 417171
2012 03 16.29613 13 03 50.12 -01 49 08.8 21.2 V 691 – Steward Observatory, Kitt Peak-Spacewatch MPS 417171
2012 03 16.31385 13 03 49.16 -01 49 02.7 20.8 V 691 – Steward Observatory, Kitt Peak-Spacewatch MPS 417171
2012 03 28.20659 12 52 46.11 -00 40 51.4 20.9 V 691 – Steward Observatory, Kitt Peak-Spacewatch MPS 420220
2012 03 28.22433 12 52 45.05 -00 40 44.8 20.8 V 691 – Steward Observatory, Kitt Peak-Spacewatch MPS 420220
2012 03 28.24206 12 52 44.00 -00 40 39.4 20.2 V 691 – Steward Observatory, Kitt Peak-Spacewatch MPS 420220
2012 03 30.20532 12 50 47.70 -00 29 28.2   691 – Steward Observatory, Kitt Peak-Spacewatch MPS 420220
2012 03 30.22303 12 50 46.61 -00 29 22.2   691 – Steward Observatory, Kitt Peak-Spacewatch MPS 420220
2012 03 30.24073 12 50 45.54 -00 29 16.8   691 – Steward Observatory, Kitt Peak-Spacewatch MPS 420220
2013 07 04.43936 20 03 39.231 -23 03 18.40 21.4 w F51 – Pan-STARRS 1, Haleakala MPS 471762
2013 07 04.46451 20 03 37.759 -23 03 24.48 21.3 w F51 – Pan-STARRS 1, Haleakala MPS 471762
2013 07 04.47709 20 03 37.031 -23 03 27.30 21.4 w F51 – Pan-STARRS 1, Haleakala MPS 471762
2015 01 18.23875 05 41 20.060 +25 32 52.67 20.1 w F51 – Pan-STARRS 1, Haleakala MPS 566994
2015 01 18.25272 05 41 19.606 +25 32 53.78 20.1 w F51 – Pan-STARRS 1, Haleakala MPS 566994
2015 01 18.26358 05 41 18.72 +25 32 54.6 20.5 r G45 – Space Surveillance Telescope, Atom Site MPS 579662
2015 01 18.26663 05 41 19.160 +25 32 54.84 20.0 w F51 – Pan-STARRS 1, Haleakala MPS 566994
2015 01 18.26772 05 41 18.67 +25 32 53.3 20.8 r G45 – Space Surveillance Telescope, Atom Site MPS 579662
2015 01 18.27180 05 41 18.54 +25 32 53.3 20.7 r G45 – Space Surveillance Telescope, Atom Site MPS 579662
2015 01 18.27594 05 41 18.41 +25 32 54.0 20.6 r G45 – Space Surveillance Telescope, Atom Site MPS 579662
2015 01 18.28002 05 41 18.22 +25 32 53.8 20.3 r G45 – Space Surveillance Telescope, Atom Site MPS 579662
2015 01 18.28067 05 41 18.703 +25 32 55.89 20.1 w F51 – Pan-STARRS 1, Haleakala MPS 566994
2015 01 18.28410 05 41 18.15 +25 32 55.0 20.7 r G45 – Space Surveillance Telescope, Atom Site MPS 579662
2015 01 18.30165 05 41 17.55 +25 32 55.3 20.3 r G45 – Space Surveillance Telescope, Atom Site MPS 579662
2015 01 18.31034 05 41 17.28 +25 32 56.0 20.0 r G45 – Space Surveillance Telescope, Atom Site MPS 579662
2015 01 20.23433 05 40 26.562 +25 34 58.56 20.0 w F51 – Pan-STARRS 1, Haleakala MPS 566994
2015 01 20.24791 05 40 26.189 +25 34 59.56 20.0 w F51 – Pan-STARRS 1, Haleakala MPS 566994
2015 01 20.26143 05 40 25.819 +25 35 00.53 20.1 w F51 – Pan-STARRS 1, Haleakala MPS 566994
2015 01 20.27495 05 40 25.447 +25 35 01.43 20.1 w F51 – Pan-STARRS 1, Haleakala MPS 566994
2017 08 17.47744 23 48 33.129 -06 19 23.14 21.1 w F51 – Pan-STARRS 1, Haleakala MPS 811856
2017 08 17.48849 23 48 32.770 -06 19 26.26 21.3 w F51 – Pan-STARRS 1, Haleakala MPS 811856
2017 08 17.49955 23 48 32.400 -06 19 29.50 21.2 w F51 – Pan-STARRS 1, Haleakala MPS 811856
2017 08 17.51062 23 48 32.053 -06 19 32.91 21.0 w F51 – Pan-STARRS 1, Haleakala MPS 811856
